Location: Unspecified
(0.0000°N, 0.0000°E)
Time: 00:59:52
(UTC+00:00)

Envisat - Pass Details

Date: 20 July 2019
Orbit: 764 x 766 km, 98.1° (Epoch: 18 November)

Event Time Altitude Azimuth Distance (km) Brightness Sun altitude
Rises 19:11:12 0° 181° (S) 3,231 6.0 -15.1°
Reaches altitude 10° 19:13:37 10° 188° (S) 2,302 5.3 -15.7°
Maximum altitude 19:18:22 41° 258° (WSW) 1,090 4.2 -16.8°
Drops below altitude 10° 19:23:07 10° 328° (NNW) 2,292 6.2 -17.9°
Sets 19:25:31 0° 335° (NNW) 3,215 7.0 -18.5°
